Lid_Strength_Index
6 6 5 5 6 5 5 4 3 2 1 2 2 2 3 2 1 1 1 3 4 6 6 8 9 9 10 11 11 12 12 13 12 13 13 12 13 12 12 12 12 12 12
7 7 6 6 5 4 5 5 4 3 2 1 1 2 3 4 2 1 2 3 5 7 8 9 10 10 11 11 12 11 11 13 13 14 14 15 14 13 13 12 12 13 12
8 8 8 7 6 6 5 4 4 3 5 5 4 6 6 6 6 5 5 6 7 7 9 10 10 11 11 12 12 11 12 12 13 15 14 15 15 15 13 12 13 13 13
8 8 8 8 8 7 5 4 4 3 3 4 2 3 4 4 7 8 8 8 9 9 9 10 10 10 10 11 11 12 12 12 14 14 13 15 15 15 16 14 14 13 13
8 8 8 7 6 7 6 5 3 3 3 2 1 2 3 7 8 9 9 10 8 8 9 9 9 10 10 11 12 13 13 13 13 13 14 15 15 15 16 16 15 15 14
10 9 8 7 7 7 7 5 4 3 3 2 2 2 6 8 9 10 10 10 9 9 9 9 10 10 11 12 11 13 14 14 14 14 14 15 16 16 17 18 18 17 15
9 8 7 6 6 6 6 6 5 4 3 2 2 4 6 7 8 9 9 10 11 10 10 10 10 10 11 11 11 13 13 14 14 14 15 15 15 15 16 17 17 17 16
8 7 7 7 6 5 6 6 6 4 2 2 3 5 7 8 9 9 9 10 10 10 10 10 10 11 11 12 13 12 14 14 14 15 14 14 15 15 15 15 17 19 18
9 8 7 7 6 6 5 5 6 3 2 3 4 7 8 9 9 9 10 11 10 11 11 10 11 12 12 13 12 14 14 15 15 15 15 15 15 15 15 15 16 17 19
9 8 7 6 5 4 4 5 5 3 3 4 6 8 8 9 10 11 11 11 9 10 11 12 12 12 13 13 13 14 15 15 15 14 15 16 15 15 15 15 15 16 18
8 7 6 5 4 4 4 5 5 3 4 6 7 8 9 10 10 11 11 10 9 11 12 12 13 13 13 14 14 15 15 15 15 15 15 15 15 15 16 16 16 17 18
8 7 5 5 4 4 4 5 4 4 5 7 8 9 10 11 11 11 10 10 12 12 13 13 13 14 14 13 14 14 15 16 15 15 16 15 14 15 16 17 17 17 17
8 7 5 5 5 5 4 4 5 8 8 10 11 11 11 11 12 12 11 11 12 13 12 13 13 14 14 15 14 14 15 15 15 15 15 15 15 16 17 17 17 17 15
8 7 6 5 5 4 6 7 8 9 9 10 11 12 12 12 12 12 12 12 12 13 14 13 14 14 14 14 14 14 14 15 14 14 14 15 15 16 17 16 16 15 16
8 6 6 6 6 6 8 9 9 9 10 11 11 12 12 12 12 12 13 13 13 13 14 13 14 15 14 14 14 14 14 15 14 14 15 15 14 12 12 14 15 15 16
6 6 6 6 8 9 9 9 10 10 10 11 12 11 13 12 13 14 13 14 14 14 14 14 14 15 14 12 13 14 14 15 15 16 16 15 13 13 11 11 10 11 14
7 6 7 9 9 9 9 11 11 10 11 12 12 13 13 14 14 14 14 14 15 15 15 15 15 16 15 13 13 13 15 15 16 16 16 16 14 13 15 12 11 11 10
7 6 9 10 10 10 11 11 11 12 13 13 13 14 14 14 14 15 14 15 15 15 15 16 16 16 15 13 14 13 16 16 16 16 16 16 16 15 13 14 15 14 14
8 11 11 12 11 12 12 12 13 13 13 14 14 13 13 14 14 14 14 14 15 16 17 17 17 17 16 14 14 14 16 17 17 16 15 14 15 12 10 13 15 15 14
12 12 12 12 12 11 11 12 13 13 13 13 13 13 12 13 14 14 16 16 17 17 16 16 17 15 18 13 13 14 16 17 16 16 15 12 12 11 10 12 14 15 15
13 12 12 13 13 12 12 13 12 14 13 13 13 13 14 15 17 17 16 17 17 17 18 18 17 17 17 17 13 13 15 15 15 15 15 15 11 11 10 10 14 14 12
12 12 12 12 12 11 13 13 14 13 13 14 15 15 15 15 16 17 17 18 18 18 18 18 18 18 18 13 13 11 11 12 15 16 16 15 11 11 11 12 11 10 10
12 12 12 13 13 12 12 14 15 15 15 15 16 16 16 16 16 18 18 18 18 18 19 20 19 19 17 17 13 12 12 12 14 15 13 11 12 12 14 12 11 11 14
13 12 13 14 15 15 15 15 16 16 16 16 16 16 17 17 17 17 17 18 19 19 19 19 19 19 18 17 17 15 16 13 14 13 15 13 14 13 13 13 13 14 14
15 15 16 17 17 16 16 15 15 15 16 16 17 17 17 17 18 18 18 18 18 18 19 19 18 18 19 17 13 13 14 14 13 13 16 17 16 16 15 14 14 14 14
16 16 16 16 16 16 16 15 15 15 15 17 17 17 18 19 19 19 19 14 14 14 14 14 16 16 14 13 13 12 12 12 12 17 18 17 16 15 15 15 15 15 14